Flag for Chile Weather past 2 weeks in Santiago, Chile

Now
46 °F

Clear.


Feels Like: 46 °F
Forecast: 57 / 72 °F
Wind: 2 mph from North

Location: Pudahuel


UV Index: 3 (Moderate)

Visibility: 3 mi


Pressure: 30.04 "Hg

Humidity: 62%

Dew point: 34 °F

Location of SantiagoLocation

Historic Weather in Santiago

°F

Santiago temperature yesterday

Maximum temperature yesterday: 72 °F (at 5:00 PM)
Minimum temperature yesterday: 46 °F (at 8:00 AM)
Average temperature yesterday: 59 °F

Past Weeks' High & Low Weather Summary

 TemperatureHumidityPressure
High86 °F (Apr 13, 5:00 PM)94% (Apr 6, 11:00 AM)30.21 "Hg (Apr 6, 11:00 AM)
Low41 °F (Apr 13, 8:00 AM)7% (Apr 13, 5:00 PM)29.86 "Hg (Apr 14, 4:00 PM)
Average59 °F51%30.02 "Hg
* Reported Apr 3 9:00 AM — Apr 18 9:00 AM, Santiago, Weather by CustomWeather, © 2014

Note: Actual official high and low records may vary slightly from our data, if they occured in-between our weather recording intervals... More about our weather records

Advertising

Historic Weather Conditions — Data for Previous 24 hours

 ConditionsComfort  
Time TempWeatherWind HumidityBarometerVisibility
9:00 AM
Apr 18
45 °FClear.No wind61%30.01 "Hg3 mi
8:00 AM43 °FClear.No wind66%30.01 "Hg3 mi
7:00 AM45 °FClear.1 mph61%30.01 "Hg4 mi
6:00 AM46 °FClear.3 mph66%29.98 "Hg4 mi
5:00 AM43 °FClear.No wind71%30.01 "Hg4 mi
4:00 AM46 °FClear.2 mph62%30.01 "Hg4 mi
3:00 AM48 °FClear.1 mph62%30.04 "Hg5 mi
2:00 AM48 °FClear.1 mph62%30.04 "Hg10 mi
1:00 AM48 °FClear.2 mph62%30.04 "Hg10 mi
12:00 AM54 °FClear.2 mph47%30.04 "Hg10 mi
11:00 PM
Apr 17
55 °FClear.2 mph51%30.04 "Hg10 mi
10:00 PM61 °FClear.12 mph36%30.04 "Hg10 mi
9:00 PM63 °FClear.8 mph49%30.01 "Hg10 mi
8:00 PM64 °FClear.7 mph43%30.01 "Hg10 mi
7:00 PM72 °FClear.10 mph27%29.98 "Hg10 mi
6:00 PM72 °FPassing clouds.7 mph29%29.98 "HgN/A
5:00 PM72 °FPassing clouds.8 mph29%29.98 "HgN/A
4:00 PM70 °FPassing clouds.5 mph43%30.01 "HgN/A
3:00 PM66 °FPassing clouds.5 mph49%30.04 "HgN/A
2:00 PM64 °FPartly sunny.1 mph49%30.04 "HgN/A
1:00 PM61 °FClear.2 mph55%30.04 "Hg5 mi
12:00 PM57 °FPartly sunny.2 mph59%30.07 "Hg5 mi
11:00 AM55 °FPartly sunny.1 mph63%30.07 "Hg5 mi
10:00 AM52 °FClear.2 mph72%30.07 "Hg5 mi
Weather by CustomWeather, © 2014

See weather overview